GFSGBSN_prec_precacc_192.txt.gz
Total_Precipitation_Accumulation
0.43 0.41 0.39 0.34 0.32 0.26 0.23 0.22 0.18 0.12 0.07 0.05 0.04 0.04 0.03 0.03 0.03 0.03 0.02 0.02 0.02 0.02 0.02 0.02 0.02 0.02 0.01 0.00 0.00 0.00 0.00 0.00 0.00 0.00 0.00 0.00 0.00 0.00 0.00 0.00 0.00 0.00 0.00 0.00 0.00 0.03 0.02
0.41 0.43 0.44 0.41 0.39 0.36 0.31 0.25 0.17 0.12 0.08 0.06 0.04 0.04 0.02 0.03 0.03 0.03 0.03 0.02 0.02 0.02 0.02 0.02 0.03 0.04 0.01 0.00 0.00 0.00 0.00 0.00 0.00 0.00 0.00 0.00 0.00 0.00 0.00 0.00 0.00 0.00 0.00 0.00 0.00 0.02 0.02
0.73 0.53 0.39 0.33 0.29 0.27 0.25 0.23 0.23 0.24 0.21 0.15 0.11 0.06 0.04 0.03 0.03 0.03 0.02 0.02 0.02 0.02 0.03 0.02 0.03 0.04 0.06 0.01 0.00 0.00 0.00 0.00 0.00 0.00 0.00 0.00 0.00 0.00 0.00 0.00 0.00 0.00 0.00 0.00 0.00 0.01 0.02
1.30 1.04 0.92 0.90 0.83 0.68 0.53 0.46 0.39 0.31 0.26 0.20 0.13 0.08 0.07 0.04 0.03 0.03 0.02 0.02 0.02 0.02 0.03 0.04 0.06 0.06 0.12 0.00 0.00 0.00 0.00 0.00 0.00 0.00 0.00 0.00 0.00 0.00 0.00 0.00 0.00 0.00 0.00 0.00 0.02 0.00 0.02
1.27 1.28 1.22 1.09 0.95 0.92 0.90 0.82 0.76 0.70 0.62 0.50 0.40 0.30 0.20 0.10 0.08 0.06 0.04 0.03 0.03 0.04 0.06 0.07 0.08 0.06 0.05 0.00 0.00 0.00 0.00 0.02 0.01 0.00 0.00 0.00 0.00 0.00 0.00 0.00 0.00 0.00 0.00 0.00 0.00 0.00 0.01
1.04 0.98 0.91 0.93 0.88 0.83 0.78 0.72 0.71 0.72 0.76 0.68 0.61 0.56 0.40 0.23 0.16 0.09 0.05 0.07 0.08 0.05 0.03 0.02 0.17 0.11 0.01 0.00 0.00 0.00 0.00 0.01 0.02 0.00 0.00 0.00 0.00 0.00 0.00 0.00 0.00 0.00 0.00 0.00 0.00 0.00 0.00
1.00 0.92 0.88 0.86 0.79 0.69 0.62 0.57 0.52 0.52 0.54 0.53 0.51 0.48 0.45 0.36 0.25 0.18 0.10 0.06 0.05 0.02 0.04 0.01 0.03 0.00 0.00 0.00 0.00 0.00 0.00 0.00 0.00 0.00 0.00 0.01 0.00 0.01 0.00 0.00 0.01 0.01 0.01 0.03 0.01 0.00 0.00
0.97 0.91 0.80 0.71 0.62 0.59 0.60 0.63 0.61 0.57 0.53 0.47 0.37 0.31 0.28 0.30 0.24 0.12 0.06 0.06 0.02 0.04 0.07 0.00 0.00 0.00 0.00 0.00 0.00 0.00 0.00 0.00 0.01 0.05 0.02 0.04 0.04 0.01 0.00 0.01 0.03 0.05 0.09 0.04 0.01 0.01 0.06
1.28 1.13 0.99 0.85 0.74 0.63 0.56 0.53 0.49 0.46 0.45 0.41 0.38 0.33 0.26 0.19 0.15 0.07 0.03 0.03 0.01 0.02 0.15 0.01 0.00 0.00 0.00 0.01 0.01 0.00 0.00 0.00 0.02 0.06 0.06 0.07 0.03 0.00 0.01 0.02 0.02 0.02 0.02 0.00 0.01 0.05 0.17
1.28 1.19 1.17 1.13 1.05 0.97 0.86 0.78 0.68 0.54 0.47 0.40 0.34 0.35 0.32 0.24 0.14 0.04 0.06 0.03 0.02 0.05 0.55 0.09 0.00 0.03 0.04 0.02 0.01 0.00 0.00 0.00 0.01 0.01 0.03 0.04 0.00 0.01 0.04 0.04 0.04 0.06 0.02 0.01 0.02 0.17 0.20
1.16 1.10 1.08 1.05 1.04 1.04 1.02 0.98 0.93 0.86 0.72 0.59 0.48 0.42 0.40 0.35 0.13 0.11 0.10 0.06 0.10 0.67 1.83 0.19 0.01 0.04 0.01 0.01 0.01 0.01 0.00 0.01 0.02 0.01 0.04 0.06 0.01 0.02 0.03 0.02 0.02 0.02 0.01 0.04 0.09 0.12 0.18
1.03 1.00 1.11 1.16 1.09 0.99 0.90 0.92 0.97 0.82 0.74 0.67 0.62 0.65 0.80 0.51 0.23 0.13 0.10 0.24 0.90 2.42 1.97 0.06 0.01 0.02 0.02 0.01 0.00 0.00 0.00 0.01 0.01 0.03 0.02 0.02 0.02 0.07 0.05 0.01 0.02 0.06 0.06 0.20 0.23 0.19 0.34
0.80 0.79 0.83 0.93 1.02 1.07 1.07 1.02 0.94 0.97 1.02 0.96 0.92 0.88 0.93 0.54 0.38 0.21 0.43 1.60 3.41 2.84 0.38 0.01 0.01 0.00 0.03 0.05 0.06 0.08 0.08 0.12 0.10 0.06 0.09 0.07 0.08 0.02 0.01 0.05 0.03 0.06 0.17 0.44 0.63 0.55 0.30
0.93 0.79 0.75 0.77 0.76 0.81 0.89 0.96 0.95 0.98 1.10 1.31 1.40 1.37 1.08 0.61 0.43 0.51 1.31 3.29 3.99 0.96 0.06 0.00 0.00 0.01 0.14 0.20 0.17 0.19 0.11 0.09 0.04 0.02 0.09 0.17 0.24 0.05 0.01 0.02 0.03 0.06 0.17 0.35 0.75 0.56 0.28
1.00 0.92 0.85 0.77 0.72 0.69 0.69 0.76 0.87 0.96 1.15 1.50 2.09 1.79 1.45 0.55 0.52 1.39 2.99 4.37 1.85 0.27 0.09 0.05 0.04 0.17 0.29 0.15 0.25 0.23 0.13 0.10 0.04 0.04 0.29 0.38 0.44 0.03 0.02 0.03 0.03 0.03 0.10 0.12 0.64 0.64 0.91
1.11 1.08 0.99 0.90 0.82 0.76 0.76 0.75 0.77 0.93 1.19 1.66 2.04 2.22 1.32 0.38 0.84 2.68 4.86 3.24 0.76 0.16 0.17 0.25 0.55 0.41 0.41 0.17 0.29 0.26 0.28 0.15 0.11 0.09 0.22 0.55 0.94 0.08 0.06 0.07 0.04 0.03 0.12 0.62 1.40 2.12 1.43
1.24 1.13 1.01 0.89 0.85 0.81 0.78 0.82 0.90 0.96 1.37 1.74 2.20 2.85 1.08 0.63 2.23 4.54 4.76 1.83 0.41 0.09 0.11 0.53 0.95 0.83 0.57 0.62 0.57 0.67 0.77 0.40 0.15 0.19 0.24 0.44 1.12 0.30 0.06 0.16 0.05 0.05 0.18 0.55 0.93 0.83 1.44
1.47 1.27 1.16 0.98 0.90 0.91 0.89 0.94 1.07 1.28 1.80 2.54 3.00 2.80 1.01 1.34 3.46 4.03 2.34 0.83 0.37 0.21 0.20 0.55 0.83 0.94 0.95 0.90 1.06 1.58 1.09 0.76 0.35 0.43 0.54 0.53 1.06 0.62 0.25 0.15 0.13 0.14 0.20 0.38 1.15 1.15 1.43
1.79 1.56 1.31 1.15 1.03 1.02 0.94 1.06 1.26 1.65 2.34 2.96 3.82 2.42 1.87 2.10 2.88 1.81 0.90 0.49 0.45 0.44 0.35 0.78 0.88 1.05 1.11 1.12 1.41 1.10 1.05 0.62 0.45 0.64 0.81 0.79 1.35 1.27 0.88 0.80 0.92 0.62 0.50 0.72 1.15 1.66 2.22
1.87 1.74 1.48 1.36 1.30 1.25 1.12 1.15 1.37 1.72 2.43 3.63 4.65 3.43 3.64 4.21 1.84 0.69 0.75 0.80 0.75 0.50 0.47 0.58 0.98 1.06 1.10 0.94 0.73 0.99 0.75 0.29 0.14 0.22 0.41 0.87 1.51 1.20 1.09 1.02 1.31 1.37 1.16 1.07 1.84 2.71 1.88
2.15 1.86 1.61 1.47 1.47 1.43 1.37 1.28 1.43 1.97 2.73 4.77 6.22 3.02 1.48 2.25 1.77 0.91 0.81 1.14 0.78 0.65 0.54 0.40 0.78 0.73 0.83 1.13 0.67 0.55 0.51 0.33 0.21 0.10 0.17 0.64 1.71 1.03 0.88 0.92 0.71 0.91 1.29 1.36 1.30 1.34 1.63
2.18 1.99 1.80 1.62 1.52 1.63 1.52 1.48 1.45 1.94 3.68 6.71 6.12 1.82 0.98 0.63 0.41 0.91 1.62 1.65 0.85 0.59 0.88 0.70 0.61 0.34 0.48 0.81 0.78 0.66 0.65 0.75 0.68 0.37 0.41 0.47 1.15 1.10 0.90 0.70 0.55 0.82 1.05 0.73 0.72 1.07 1.00
2.44 2.24 2.18 1.95 1.79 1.79 1.95 1.81 1.73 1.99 4.29 8.01 4.82 1.39 1.59 1.17 0.59 1.03 1.03 0.79 0.66 0.68 0.72 0.57 0.67 0.90 0.77 0.54 0.54 0.57 0.56 0.69 0.76 0.83 0.83 0.75 0.91 1.02 0.84 0.35 0.47 1.22 0.95 0.52 0.32 0.30 0.30
2.46 2.36 2.18 2.44 2.09 1.97 1.97 2.12 2.20 2.32 3.28 4.38 3.12 1.38 2.18 2.01 1.10 0.68 0.43 0.48 0.54 0.69 0.91 0.53 0.53 0.69 0.49 0.41 0.52 0.63 0.57 0.42 0.43 0.40 0.74 1.09 0.82 1.13 0.92 0.72 1.54 0.86 0.30 0.17 0.08 0.12 0.13
2.20 2.30 2.04 2.23 2.47 2.17 1.93 1.97 2.44 2.47 2.44 2.63 2.18 1.88 2.25 1.79 0.60 0.54 0.57 0.48 0.38 0.50 0.73 0.56 0.50 0.55 0.60 0.72 1.18 1.04 0.82 0.69 0.31 0.29 0.32 0.51 0.99 1.40 1.19 0.77 0.67 0.29 0.09 0.05 0.14 0.15 0.09
2.21 2.19 1.91 2.05 2.23 2.49 2.18 1.96 2.21 2.52 2.52 2.74 2.09 2.21 2.74 2.47 0.97 0.34 0.63 0.70 0.71 0.68 0.76 0.56 0.45 0.34 0.59 0.98 1.35 1.20 0.76 0.60 0.44 0.38 0.32 0.54 0.89 1.89 1.71 1.15 0.62 0.22 0.06 0.06 0.14 0.31 0.14
2.66 2.23 1.95 1.91 1.79 2.26 2.50 2.16 1.84 2.27 2.78 3.11 2.49 2.01 3.61 3.43 0.85 0.41 0.50 0.52 0.61 0.62 0.82 0.59 0.61 0.61 0.72 1.24 1.35 0.88 0.62 0.40 0.59 0.50 0.56 0.81 1.37 1.90 1.81 1.83 0.74 0.11 0.11 0.12 0.43 0.59 0.17
2.59 2.47 1.74 1.64 1.53 1.65 1.96 2.41 2.25 2.11 2.82 3.77 2.80 1.73 2.66 3.12 1.09 0.54 0.44 0.47 0.31 0.44 0.73 0.75 1.03 1.23 1.40 1.51 1.26 0.91 0.69 0.46 0.50 0.43 0.47 0.76 1.11 1.20 1.53 1.84 1.12 0.42 0.48 0.61 0.59 0.24 0.12
2.17 2.50 1.71 1.49 1.55 1.56 1.48 1.74 2.43 2.60 2.92 3.96 3.66 1.94 2.25 3.03 1.86 0.80 0.41 0.35 0.30 0.27 0.53 0.73 0.91 0.71 0.95 1.28 1.02 0.82 0.69 0.54 0.43 0.76 0.41 0.86 0.63 0.84 0.95 1.32 1.24 1.03 0.87 0.52 0.27 0.27 0.25

GFSGBSN_prec_precacc_198.txt.gz
Total_Precipitation_Accumulation
0.43 0.41 0.39 0.34 0.32 0.26 0.23 0.22 0.18 0.12 0.07 0.05 0.04 0.04 0.03 0.03 0.03 0.03 0.02 0.02 0.02 0.02 0.02 0.02 0.02 0.02 0.01 0.00 0.00 0.00 0.00 0.00 0.00 0.00 0.00 0.00 0.00 0.00 0.00 0.00 0.00 0.00 0.00 0.00 0.00 0.03 0.02
0.41 0.43 0.44 0.41 0.39 0.36 0.31 0.25 0.17 0.12 0.08 0.06 0.04 0.04 0.02 0.03 0.03 0.03 0.03 0.02 0.02 0.02 0.02 0.02 0.03 0.04 0.03 0.04 0.00 0.00 0.00 0.00 0.00 0.00 0.00 0.00 0.00 0.00 0.00 0.00 0.00 0.00 0.00 0.00 0.00 0.02 0.02
0.73 0.53 0.39 0.33 0.29 0.27 0.25 0.23 0.23 0.24 0.21 0.15 0.11 0.06 0.04 0.03 0.03 0.03 0.02 0.02 0.02 0.02 0.03 0.03 0.04 0.07 0.19 0.05 0.00 0.00 0.00 0.00 0.00 0.00 0.00 0.00 0.00 0.00 0.00 0.00 0.00 0.00 0.00 0.00 0.00 0.01 0.02
1.30 1.04 0.92 0.90 0.83 0.68 0.53 0.46 0.39 0.32 0.26 0.20 0.14 0.08 0.07 0.04 0.03 0.03 0.02 0.02 0.02 0.03 0.03 0.05 0.09 0.17 0.31 0.00 0.00 0.00 0.00 0.00 0.00 0.00 0.00 0.00 0.00 0.00 0.00 0.00 0.00 0.00 0.00 0.00 0.02 0.00 0.02
1.61 1.58 1.45 1.27 1.05 0.96 0.92 0.83 0.77 0.70 0.62 0.50 0.41 0.30 0.20 0.10 0.08 0.06 0.04 0.03 0.04 0.04 0.06 0.09 0.14 0.12 0.10 0.00 0.00 0.00 0.00 0.02 0.01 0.00 0.00 0.00 0.00 0.00 0.00 0.01 0.01 0.01 0.00 0.00 0.00 0.00 0.01
1.46 1.41 1.31 1.27 1.15 1.02 0.90 0.79 0.74 0.74 0.78 0.69 0.61 0.56 0.41 0.23 0.16 0.09 0.06 0.08 0.08 0.06 0.04 0.04 0.25 0.17 0.02 0.00 0.00 0.00 0.00 0.01 0.02 0.00 0.00 0.00 0.00 0.00 0.00 0.01 0.01 0.00 0.00 0.00 0.00 0.00 0.00
1.32 1.25 1.18 1.08 0.96 0.84 0.73 0.66 0.58 0.55 0.57 0.54 0.51 0.48 0.45 0.36 0.25 0.18 0.10 0.07 0.06 0.03 0.07 0.01 0.05 0.00 0.00 0.00 0.00 0.00 0.00 0.00 0.00 0.00 0.00 0.01 0.00 0.01 0.00 0.00 0.01 0.01 0.01 0.03 0.01 0.00 0.00
1.19 1.14 1.05 0.92 0.78 0.73 0.73 0.75 0.69 0.63 0.57 0.50 0.40 0.33 0.29 0.30 0.24 0.12 0.08 0.09 0.02 0.07 0.13 0.00 0.00 0.00 0.00 0.00 0.00 0.00 0.00 0.00 0.01 0.05 0.02 0.04 0.04 0.01 0.00 0.01 0.03 0.05 0.09 0.04 0.01 0.01 0.06
1.49 1.35 1.21 1.05 0.92 0.78 0.67 0.64 0.60 0.55 0.51 0.46 0.42 0.36 0.28 0.21 0.17 0.08 0.04 0.03 0.01 0.07 0.33 0.03 0.00 0.00 0.00 0.01 0.01 0.00 0.00 0.00 0.02 0.06 0.06 0.07 0.03 0.00 0.01 0.02 0.02 0.02 0.02 0.00 0.01 0.05 0.17
1.44 1.35 1.36 1.33 1.24 1.12 0.98 0.91 0.80 0.64 0.55 0.48 0.40 0.40 0.37 0.31 0.18 0.05 0.08 0.04 0.03 0.17 1.27 0.41 0.00 0.03 0.04 0.02 0.02 0.00 0.00 0.00 0.01 0.01 0.04 0.05 0.00 0.01 0.04 0.04 0.04 0.06 0.02 0.01 0.02 0.17 0.20
1.34 1.27 1.28 1.26 1.27 1.25 1.21 1.17 1.10 1.02 0.87 0.73 0.60 0.52 0.49 0.51 0.21 0.18 0.15 0.08 0.15 0.94 2.93 0.51 0.01 0.04 0.01 0.02 0.01 0.01 0.00 0.01 0.02 0.01 0.07 0.07 0.01 0.02 0.03 0.02 0.02 0.03 0.01 0.04 0.09 0.13 0.20
1.12 1.09 1.22 1.30 1.25 1.14 1.02 1.03 1.09 0.94 0.86 0.79 0.75 0.78 0.90 0.62 0.35 0.24 0.22 0.42 1.45 3.28 2.82 0.15 0.01 0.02 0.03 0.01 0.00 0.00 0.01 0.02 0.01 0.04 0.05 0.03 0.02 0.07 0.05 0.01 0.02 0.06 0.06 0.21 0.24 0.23 0.45
0.82 0.82 0.86 0.97 1.07 1.13 1.14 1.09 1.00 1.03 1.06 1.00 0.98 0.97 1.00 0.64 0.49 0.31 0.51 1.83 4.19 3.78 0.63 0.03 0.01 0.00 0.03 0.06 0.07 0.09 0.14 0.18 0.13 0.10 0.11 0.08 0.08 0.02 0.01 0.05 0.03 0.06 0.19 0.49 0.70 0.63 0.40
0.94 0.80 0.77 0.78 0.77 0.83 0.92 0.99 0.99 1.02 1.13 1.33 1.41 1.39 1.11 0.64 0.54 0.71 1.59 3.76 4.79 1.32 0.12 0.00 0.00 0.02 0.15 0.21 0.22 0.25 0.23 0.19 0.08 0.11 0.18 0.25 0.27 0.05 0.01 0.03 0.03 0.06 0.20 0.43 0.79 0.58 0.30
1.01 0.93 0.86 0.78 0.73 0.70 0.70 0.77 0.88 0.98 1.17 1.51 2.09 1.79 1.47 0.56 0.56 1.62 3.56 5.15 2.32 0.40 0.16 0.10 0.06 0.23 0.32 0.19 0.31 0.35 0.26 0.19 0.10 0.18 0.48 0.58 0.57 0.04 0.02 0.03 0.04 0.05 0.16 0.14 0.72 0.69 1.02
1.11 1.08 0.99 0.90 0.82 0.77 0.77 0.75 0.78 0.94 1.20 1.68 2.07 2.24 1.33 0.38 0.89 2.79 5.35 3.77 0.92 0.18 0.29 0.42 0.75 0.70 0.74 0.41 0.54 0.52 0.52 0.38 0.32 0.41 0.66 1.14 1.40 0.14 0.06 0.09 0.08 0.08 0.15 0.70 1.54 2.42 1.67
1.25 1.14 1.01 0.89 0.85 0.81 0.79 0.83 0.91 0.96 1.37 1.75 2.24 2.88 1.08 0.65 2.35 4.73 5.04 1.97 0.46 0.10 0.16 0.73 1.17 1.12 0.73 0.73 0.81 0.94 1.06 0.54 0.32 0.45 0.50 0.73 1.54 0.54 0.15 0.28 0.17 0.20 0.44 0.78 1.20 1.19 1.82
1.49 1.29 1.18 1.00 0.93 0.93 0.90 0.94 1.07 1.29 1.81 2.56 3.03 2.83 1.05 1.42 3.55 4.10 2.41 0.87 0.41 0.23 0.24 0.64 0.94 1.08 1.08 0.97 1.19 1.70 1.25 0.88 0.45 0.53 0.77 0.77 1.33 0.80 0.29 0.19 0.22 0.34 0.59 0.95 1.93 1.86 1.99
1.80 1.56 1.32 1.16 1.04 1.04 0.97 1.08 1.27 1.66 2.35 3.00 3.88 2.44 1.91 2.22 2.94 1.85 0.92 0.51 0.50 0.48 0.40 0.88 0.96 1.10 1.15 1.18 1.49 1.14 1.10 0.65 0.47 0.66 0.88 0.86 1.53 1.42 0.91 0.82 1.04 0.84 0.78 1.20 1.89 2.62 2.83
1.88 1.74 1.48 1.37 1.30 1.26 1.14 1.17 1.41 1.76 2.46 3.68 4.72 3.46 3.68 4.28 1.86 0.72 0.78 0.85 0.80 0.52 0.50 0.65 1.06 1.13 1.17 0.97 0.78 1.02 0.75 0.29 0.15 0.22 0.41 0.88 1.54 1.28 1.16 1.04 1.39 1.41 1.19 1.12 2.04 3.12 2.30
2.16 1.88 1.62 1.48 1.48 1.44 1.38 1.30 1.46 2.05 2.85 4.88 6.29 3.06 1.51 2.32 1.80 0.94 0.84 1.16 0.79 0.68 0.60 0.47 0.87 0.78 0.89 1.19 0.71 0.58 0.53 0.34 0.22 0.10 0.18 0.68 1.75 1.03 0.88 0.92 0.71 0.91 1.29 1.36 1.34 1.43 1.79
2.20 2.01 1.82 1.64 1.54 1.65 1.54 1.51 1.48 2.00 3.84 6.91 6.18 1.84 1.03 0.66 0.44 0.98 1.71 1.70 0.88 0.63 0.97 0.78 0.68 0.40 0.59 0.91 0.83 0.68 0.67 0.78 0.71 0.38 0.42 0.51 1.21 1.11 0.91 0.70 0.55 0.83 1.05 0.73 0.72 1.08 1.07
2.46 2.26 2.20 1.97 1.81 1.81 1.99 1.86 1.77 2.04 4.45 8.25 4.96 1.46 1.73 1.25 0.64 1.10 1.10 0.89 0.74 0.78 0.82 0.66 0.79 1.07 0.92 0.65 0.66 0.68 0.62 0.71 0.77 0.83 0.84 0.75 0.92 1.02 0.85 0.35 0.48 1.23 0.96 0.52 0.32 0.30 0.32
2.47 2.38 2.20 2.46 2.12 2.00 2.03 2.20 2.29 2.39 3.41 4.52 3.19 1.47 2.36 2.10 1.17 0.75 0.50 0.56 0.63 0.77 1.00 0.58 0.59 0.74 0.53 0.43 0.53 0.63 0.58 0.42 0.43 0.40 0.75 1.09 0.82 1.14 0.92 0.72 1.55 0.86 0.30 0.17 0.08 0.12 0.13
2.21 2.31 2.06 2.26 2.50 2.22 2.03 2.09 2.56 2.58 2.54 2.80 2.32 1.99 2.37 1.88 0.71 0.65 0.64 0.57 0.50 0.61 0.79 0.59 0.53 0.57 0.61 0.74 1.19 1.05 0.82 0.69 0.31 0.29 0.32 0.51 1.02 1.45 1.21 0.78 0.67 0.29 0.09 0.06 0.15 0.15 0.09
2.22 2.19 1.92 2.08 2.27 2.54 2.28 2.07 2.33 2.64 2.64 2.90 2.22 2.33 2.89 2.61 1.07 0.43 0.83 0.92 0.82 0.79 0.85 0.60 0.46 0.34 0.60 1.01 1.40 1.22 0.76 0.61 0.44 0.39 0.34 0.61 0.98 2.02 1.77 1.19 0.64 0.25 0.09 0.06 0.16 0.34 0.15
2.66 2.24 1.96 1.93 1.83 2.32 2.61 2.30 1.93 2.38 3.00 3.36 2.67 2.10 3.78 3.53 0.91 0.49 0.61 0.66 0.72 0.72 0.89 0.66 0.67 0.68 0.80 1.34 1.43 0.94 0.67 0.45 0.65 0.58 0.62 0.86 1.48 2.23 2.10 2.09 0.90 0.22 0.13 0.15 0.57 0.77 0.32
2.60 2.47 1.74 1.64 1.55 1.69 2.01 2.49 2.35 2.28 3.10 4.19 3.08 1.82 2.77 3.26 1.16 0.59 0.47 0.52 0.43 0.56 0.87 0.89 1.11 1.33 1.53 1.63 1.39 1.06 0.87 0.67 0.60 0.49 0.51 0.80 1.15 1.32 1.62 2.10 1.49 0.50 0.53 0.76 0.79 0.37 0.21
2.17 2.50 1.72 1.49 1.55 1.57 1.50 1.78 2.48 2.65 3.01 4.18 3.92 2.21 2.37 3.17 1.94 0.84 0.42 0.37 0.34 0.34 0.63 0.83 1.03 0.83 1.06 1.40 1.22 0.93 0.76 0.58 0.45 0.78 0.43 0.87 0.64 0.85 0.96 1.36 1.25 1.07 0.97 0.62 0.38 0.46 0.39

GFSGBSN_prec_precacc_201.txt.gz
Total_Precipitation_Accumulation
0.43 0.41 0.39 0.34 0.32 0.26 0.23 0.22 0.18 0.12 0.07 0.05 0.04 0.04 0.03 0.03 0.03 0.03 0.02 0.02 0.02 0.02 0.02 0.02 0.02 0.03 0.02 0.00 0.00 0.00 0.00 0.00 0.00 0.00 0.00 0.00 0.00 0.00 0.00 0.00 0.00 0.00 0.00 0.00 0.00 0.03 0.02
0.41 0.43 0.44 0.41 0.39 0.36 0.31 0.25 0.17 0.12 0.08 0.06 0.04 0.04 0.02 0.03 0.03 0.03 0.03 0.02 0.02 0.02 0.02 0.02 0.03 0.07 0.08 0.08 0.00 0.00 0.00 0.00 0.00 0.00 0.00 0.00 0.00 0.00 0.00 0.00 0.00 0.00 0.00 0.00 0.00 0.02 0.02
0.73 0.53 0.39 0.33 0.29 0.27 0.25 0.23 0.23 0.24 0.21 0.15 0.11 0.06 0.04 0.03 0.03 0.03 0.02 0.02 0.03 0.02 0.04 0.03 0.05 0.09 0.28 0.07 0.00 0.00 0.00 0.00 0.00 0.00 0.00 0.00 0.00 0.00 0.00 0.00 0.00 0.00 0.00 0.00 0.00 0.01 0.02
1.31 1.04 0.92 0.90 0.83 0.68 0.53 0.46 0.39 0.32 0.26 0.20 0.14 0.08 0.07 0.04 0.03 0.03 0.02 0.02 0.03 0.04 0.04 0.05 0.10 0.20 0.37 0.00 0.00 0.00 0.00 0.00 0.00 0.00 0.00 0.00 0.00 0.00 0.00 0.00 0.00 0.00 0.00 0.00 0.02 0.00 0.02
1.65 1.64 1.54 1.36 1.18 1.11 1.05 0.94 0.86 0.77 0.64 0.51 0.42 0.31 0.21 0.10 0.08 0.06 0.04 0.04 0.05 0.05 0.07 0.09 0.16 0.14 0.12 0.00 0.00 0.00 0.00 0.02 0.01 0.00 0.00 0.00 0.00 0.00 0.00 0.02 0.02 0.01 0.00 0.00 0.00 0.00 0.01
1.48 1.45 1.38 1.38 1.30 1.20 1.09 1.00 0.94 0.90 0.89 0.77 0.66 0.59 0.43 0.24 0.16 0.10 0.06 0.10 0.09 0.06 0.04 0.05 0.28 0.18 0.02 0.00 0.00 0.00 0.00 0.01 0.02 0.00 0.00 0.00 0.00 0.00 0.02 0.02 0.01 0.00 0.00 0.00 0.00 0.00 0.00
1.35 1.29 1.25 1.20 1.11 0.99 0.89 0.80 0.71 0.67 0.68 0.64 0.59 0.53 0.48 0.38 0.27 0.19 0.12 0.08 0.07 0.03 0.08 0.01 0.06 0.01 0.00 0.00 0.00 0.00 0.00 0.00 0.00 0.00 0.00 0.01 0.00 0.01 0.01 0.00 0.01 0.01 0.01 0.03 0.01 0.00 0.00
1.22 1.17 1.09 0.97 0.85 0.80 0.81 0.83 0.78 0.73 0.67 0.59 0.49 0.41 0.36 0.36 0.30 0.18 0.14 0.12 0.03 0.08 0.16 0.00 0.00 0.00 0.00 0.00 0.00 0.00 0.00 0.00 0.01 0.05 0.03 0.05 0.04 0.01 0.00 0.01 0.03 0.05 0.09 0.04 0.01 0.01 0.06
1.52 1.39 1.25 1.09 0.97 0.83 0.74 0.71 0.67 0.62 0.60 0.55 0.51 0.44 0.35 0.29 0.28 0.20 0.11 0.05 0.01 0.14 0.58 0.09 0.00 0.00 0.00 0.01 0.01 0.00 0.00 0.00 0.02 0.07 0.08 0.07 0.03 0.00 0.01 0.02 0.02 0.02 0.02 0.00 0.01 0.05 0.17
1.45 1.37 1.40 1.38 1.30 1.18 1.04 0.99 0.89 0.74 0.64 0.57 0.48 0.48 0.44 0.41 0.32 0.20 0.23 0.13 0.05 0.28 1.82 0.66 0.00 0.03 0.04 0.02 0.02 0.00 0.00 0.00 0.01 0.02 0.07 0.06 0.00 0.01 0.04 0.04 0.04 0.07 0.02 0.01 0.02 0.17 0.21
1.35 1.29 1.31 1.31 1.32 1.31 1.26 1.23 1.16 1.08 0.92 0.78 0.66 0.58 0.57 0.63 0.37 0.37 0.32 0.23 0.30 1.34 3.69 0.71 0.01 0.04 0.01 0.02 0.01 0.01 0.00 0.01 0.02 0.01 0.12 0.08 0.01 0.02 0.03 0.02 0.02 0.03 0.02 0.04 0.09 0.14 0.24
1.12 1.09 1.22 1.31 1.28 1.17 1.07 1.07 1.11 0.96 0.88 0.82 0.78 0.82 0.93 0.67 0.44 0.32 0.31 0.54 1.79 3.94 3.45 0.24 0.01 0.02 0.03 0.01 0.00 0.00 0.01 0.02 0.02 0.05 0.10 0.03 0.02 0.07 0.05 0.01 0.02 0.06 0.06 0.21 0.24 0.24 0.48
0.83 0.83 0.87 0.97 1.08 1.13 1.15 1.11 1.02 1.05 1.08 1.01 0.99 0.98 1.01 0.67 0.56 0.37 0.54 1.94 4.57 4.30 0.85 0.06 0.01 0.00 0.03 0.06 0.08 0.09 0.15 0.20 0.15 0.14 0.13 0.09 0.08 0.02 0.01 0.07 0.03 0.07 0.21 0.54 0.75 0.65 0.42
0.94 0.81 0.77 0.79 0.78 0.84 0.92 0.99 0.99 1.02 1.14 1.34 1.41 1.39 1.11 0.65 0.59 0.84 1.68 3.93 5.19 1.49 0.15 0.01 0.00 0.02 0.15 0.21 0.23 0.27 0.27 0.24 0.14 0.18 0.25 0.34 0.30 0.05 0.01 0.05 0.04 0.07 0.25 0.54 0.93 0.62 0.31
1.01 0.93 0.86 0.78 0.73 0.70 0.71 0.78 0.89 0.98 1.18 1.52 2.10 1.79 1.47 0.56 0.57 1.71 3.84 5.40 2.48 0.44 0.18 0.11 0.06 0.23 0.33 0.19 0.32 0.36 0.28 0.24 0.19 0.31 0.65 0.78 0.69 0.06 0.02 0.03 0.08 0.07 0.23 0.17 0.81 0.74 1.11
1.12 1.09 1.00 0.90 0.82 0.77 0.77 0.75 0.78 0.94 1.21 1.68 2.07 2.25 1.33 0.39 0.92 2.80 5.52 3.93 0.95 0.19 0.32 0.49 0.87 0.78 0.80 0.44 0.58 0.59 0.60 0.48 0.40 0.48 0.79 1.38 1.55 0.16 0.07 0.09 0.09 0.16 0.29 0.84 1.66 2.62 1.89
1.26 1.15 1.03 0.91 0.87 0.82 0.79 0.83 0.91 0.96 1.38 1.75 2.24 2.88 1.09 0.66 2.40 4.77 5.06 1.98 0.46 0.10 0.17 0.79 1.20 1.22 0.78 0.76 0.92 1.05 1.13 0.60 0.36 0.50 0.55 0.78 1.65 0.56 0.16 0.32 0.30 0.32 0.61 1.01 1.66 1.73 2.35
1.49 1.29 1.18 1.01 0.93 0.94 0.92 0.97 1.09 1.30 1.81 2.56 3.03 2.83 1.07 1.46 3.57 4.11 2.43 0.88 0.42 0.23 0.24 0.66 0.95 1.08 1.09 0.97 1.24 1.79 1.30 0.88 0.45 0.54 0.83 0.82 1.42 0.84 0.31 0.20 0.26 0.46 0.81 1.13 2.19 2.16 2.24
1.80 1.57 1.32 1.17 1.04 1.04 0.97 1.09 1.29 1.68 2.36 3.01 3.89 2.44 1.93 2.31 2.96 1.86 0.92 0.51 0.50 0.48 0.42 0.91 1.01 1.13 1.18 1.20 1.52 1.15 1.12 0.66 0.47 0.67 0.91 0.90 1.58 1.47 0.92 0.82 1.09 0.95 0.92 1.35 2.08 2.82 2.99
1.88 1.74 1.49 1.37 1.31 1.26 1.15 1.18 1.42 1.79 2.50 3.70 4.74 3.48 3.69 4.31 1.86 0.72 0.78 0.85 0.80 0.52 0.50 0.65 1.07 1.16 1.20 1.00 0.80 1.03 0.76 0.30 0.19 0.27 0.45 0.92 1.56 1.28 1.17 1.04 1.40 1.42 1.20 1.14 2.08 3.20 2.34
2.17 1.88 1.63 1.49 1.49 1.45 1.39 1.31 1.47 2.06 2.91 4.94 6.31 3.07 1.51 2.33 1.81 0.94 0.85 1.17 0.79 0.68 0.60 0.47 0.90 0.81 0.94 1.22 0.73 0.59 0.53 0.35 0.23 0.14 0.21 0.70 1.75 1.04 0.88 0.92 0.71 0.91 1.30 1.36 1.36 1.45 1.80
2.21 2.02 1.83 1.65 1.55 1.66 1.55 1.53 1.51 2.03 3.90 6.99 6.24 1.85 1.04 0.67 0.45 0.99 1.74 1.72 0.89 0.63 0.97 0.78 0.68 0.40 0.60 0.92 0.87 0.70 0.68 0.79 0.73 0.42 0.47 0.55 1.26 1.14 0.94 0.70 0.55 0.83 1.05 0.73 0.72 1.09 1.08
2.47 2.27 2.20 1.97 1.82 1.83 2.02 1.88 1.79 2.07 4.53 8.30 4.99 1.47 1.78 1.27 0.66 1.12 1.11 0.90 0.75 0.81 0.83 0.68 0.82 1.09 0.92 0.66 0.66 0.69 0.64 0.75 0.79 0.85 0.87 0.79 0.96 1.03 0.85 0.35 0.48 1.23 0.96 0.52 0.32 0.30 0.32
2.47 2.38 2.20 2.47 2.13 2.01 2.05 2.24 2.33 2.43 3.48 4.56 3.21 1.49 2.40 2.14 1.18 0.75 0.51 0.57 0.64 0.78 1.03 0.59 0.62 0.78 0.57 0.46 0.54 0.64 0.58 0.43 0.46 0.43 0.78 1.11 0.82 1.14 0.92 0.72 1.55 0.86 0.30 0.17 0.08 0.12 0.13
2.21 2.32 2.06 2.26 2.51 2.23 2.04 2.12 2.62 2.65 2.63 2.89 2.37 2.04 2.41 1.89 0.73 0.68 0.69 0.59 0.50 0.62 0.81 0.61 0.56 0.61 0.64 0.77 1.22 1.06 0.82 0.69 0.31 0.30 0.32 0.51 1.02 1.46 1.22 0.78 0.67 0.29 0.09 0.06 0.15 0.15 0.09
2.22 2.20 1.92 2.08 2.28 2.55 2.29 2.09 2.38 2.72 2.74 3.00 2.26 2.39 3.01 2.65 1.07 0.44 0.84 0.94 0.86 0.80 0.89 0.63 0.47 0.35 0.62 1.03 1.42 1.22 0.76 0.61 0.44 0.39 0.34 0.62 1.01 2.06 1.79 1.22 0.64 0.26 0.09 0.06 0.16 0.35 0.15
2.66 2.24 1.96 1.93 1.83 2.33 2.62 2.33 1.96 2.45 3.09 3.45 2.75 2.14 4.00 3.68 0.92 0.52 0.65 0.71 0.77 0.80 1.02 0.73 0.71 0.72 0.83 1.36 1.44 0.94 0.67 0.46 0.66 0.58 0.62 0.88 1.50 2.26 2.16 2.23 1.02 0.29 0.13 0.15 0.60 0.78 0.32
2.60 2.47 1.74 1.65 1.56 1.69 2.01 2.49 2.37 2.31 3.17 4.29 3.21 1.87 2.85 3.39 1.20 0.61 0.50 0.55 0.47 0.66 1.04 0.98 1.16 1.39 1.57 1.66 1.41 1.07 0.89 0.73 0.63 0.54 0.57 0.83 1.18 1.38 1.66 2.13 1.57 0.52 0.54 0.76 0.79 0.37 0.21
2.18 2.50 1.72 1.50 1.56 1.57 1.50 1.79 2.50 2.66 3.12 4.36 4.15 2.30 2.43 3.22 2.01 0.87 0.43 0.37 0.36 0.41 0.75 0.87 1.09 0.92 1.14 1.44 1.27 0.95 0.80 0.68 0.52 0.83 0.49 0.91 0.65 0.85 0.96 1.37 1.25 1.07 0.97 0.62 0.38 0.46 0.39

GFSGBSN_prec_precacc_204.txt.gz
Total_Precipitation_Accumulation
0.43 0.41 0.39 0.34 0.32 0.26 0.23 0.22 0.18 0.12 0.07 0.05 0.04 0.04 0.03 0.03 0.03 0.03 0.02 0.02 0.02 0.02 0.02 0.02 0.02 0.03 0.03 0.02 0.00 0.00 0.00 0.00 0.00 0.00 0.00 0.00 0.00 0.00 0.00 0.00 0.00 0.00 0.00 0.00 0.00 0.03 0.02
0.41 0.43 0.44 0.41 0.39 0.36 0.31 0.25 0.17 0.12 0.08 0.06 0.04 0.04 0.02 0.03 0.03 0.03 0.03 0.02 0.02 0.02 0.02 0.02 0.03 0.08 0.12 0.14 0.00 0.00 0.00 0.00 0.00 0.00 0.00 0.00 0.00 0.00 0.00 0.00 0.00 0.00 0.00 0.00 0.00 0.02 0.02
0.74 0.53 0.39 0.33 0.29 0.27 0.25 0.23 0.23 0.24 0.21 0.15 0.11 0.06 0.04 0.03 0.03 0.03 0.02 0.02 0.03 0.03 0.04 0.04 0.05 0.11 0.34 0.09 0.00 0.00 0.00 0.00 0.00 0.00 0.00 0.00 0.00 0.00 0.00 0.00 0.00 0.00 0.00 0.00 0.00 0.01 0.02
1.32 1.05 0.93 0.90 0.83 0.68 0.53 0.46 0.39 0.32 0.26 0.20 0.14 0.08 0.07 0.04 0.03 0.03 0.02 0.02 0.03 0.04 0.05 0.06 0.12 0.23 0.43 0.01 0.00 0.00 0.00 0.00 0.00 0.00 0.00 0.00 0.00 0.00 0.00 0.00 0.00 0.00 0.00 0.00 0.02 0.00 0.02
1.66 1.64 1.54 1.38 1.21 1.14 1.07 0.96 0.88 0.79 0.69 0.55 0.44 0.32 0.21 0.11 0.08 0.07 0.04 0.04 0.06 0.06 0.07 0.10 0.18 0.15 0.13 0.00 0.00 0.00 0.00 0.02 0.01 0.00 0.00 0.00 0.00 0.00 0.01 0.03 0.04 0.02 0.00 0.00 0.00 0.00 0.01
1.51 1.47 1.39 1.40 1.31 1.21 1.10 1.02 0.97 0.95 0.96 0.86 0.75 0.66 0.48 0.28 0.19 0.12 0.10 0.17 0.17 0.12 0.06 0.08 0.36 0.22 0.03 0.00 0.00 0.00 0.00 0.01 0.02 0.00 0.00 0.00 0.00 0.01 0.03 0.03 0.02 0.00 0.00 0.00 0.00 0.00 0.00
1.38 1.32 1.27 1.22 1.13 1.01 0.91 0.82 0.73 0.71 0.74 0.71 0.67 0.62 0.57 0.46 0.35 0.30 0.31 0.33 0.30 0.14 0.12 0.03 0.08 0.01 0.00 0.00 0.00 0.00 0.00 0.00 0.01 0.00 0.00 0.01 0.00 0.02 0.01 0.00 0.01 0.01 0.01 0.03 0.01 0.00 0.00
1.23 1.18 1.10 0.99 0.87 0.83 0.84 0.86 0.80 0.75 0.70 0.64 0.53 0.45 0.41 0.40 0.35 0.29 0.38 0.39 0.17 0.21 0.25 0.01 0.00 0.00 0.00 0.00 0.00 0.00 0.00 0.01 0.01 0.06 0.03 0.05 0.04 0.01 0.00 0.01 0.03 0.05 0.09 0.04 0.01 0.01 0.06
1.52 1.39 1.26 1.11 0.99 0.86 0.78 0.75 0.70 0.65 0.63 0.59 0.56 0.49 0.40 0.33 0.35 0.31 0.24 0.18 0.15 0.36 0.93 0.19 0.00 0.00 0.00 0.01 0.01 0.00 0.00 0.00 0.02 0.08 0.10 0.08 0.03 0.00 0.01 0.02 0.03 0.02 0.02 0.00 0.01 0.05 0.17
1.45 1.37 1.40 1.38 1.31 1.19 1.06 1.02 0.92 0.78 0.70 0.63 0.55 0.54 0.51 0.49 0.41 0.29 0.33 0.22 0.13 0.48 2.53 1.11 0.01 0.03 0.04 0.02 0.02 0.00 0.00 0.00 0.01 0.02 0.09 0.06 0.00 0.01 0.04 0.04 0.06 0.07 0.02 0.01 0.03 0.19 0.22
1.35 1.29 1.31 1.31 1.32 1.32 1.27 1.24 1.17 1.10 0.95 0.81 0.69 0.61 0.59 0.66 0.41 0.42 0.38 0.30 0.43 1.66 4.53 1.05 0.01 0.04 0.01 0.02 0.01 0.01 0.00 0.01 0.03 0.01 0.13 0.08 0.01 0.02 0.03 0.02 0.03 0.03 0.03 0.05 0.10 0.16 0.27
1.12 1.09 1.22 1.31 1.28 1.17 1.07 1.08 1.12 0.97 0.88 0.83 0.80 0.83 0.94 0.68 0.46 0.34 0.34 0.60 1.96 4.40 4.01 0.37 0.01 0.02 0.03 0.01 0.00 0.00 0.01 0.02 0.02 0.06 0.11 0.03 0.02 0.07 0.05 0.01 0.03 0.06 0.06 0.22 0.25 0.26 0.53
0.83 0.83 0.87 0.97 1.08 1.13 1.15 1.11 1.02 1.05 1.08 1.03 1.00 0.99 1.02 0.68 0.59 0.42 0.58 2.04 4.91 4.72 0.99 0.07 0.01 0.00 0.03 0.06 0.08 0.09 0.15 0.21 0.15 0.16 0.15 0.10 0.08 0.02 0.03 0.10 0.05 0.12 0.25 0.59 0.79 0.66 0.43
0.94 0.81 0.77 0.79 0.78 0.84 0.93 1.00 0.99 1.02 1.14 1.35 1.41 1.40 1.11 0.65 0.60 0.96 1.81 4.15 5.60 1.65 0.18 0.01 0.00 0.02 0.15 0.22 0.24 0.27 0.27 0.26 0.19 0.26 0.33 0.43 0.35 0.05 0.01 0.07 0.05 0.08 0.30 0.62 1.03 0.68 0.33
1.02 0.94 0.86 0.78 0.73 0.70 0.71 0.78 0.90 1.00 1.19 1.52 2.10 1.79 1.48 0.56 0.57 1.79 4.10 5.68 2.65 0.48 0.20 0.12 0.06 0.27 0.38 0.24 0.38 0.38 0.31 0.26 0.22 0.36 0.80 0.94 0.81 0.07 0.02 0.03 0.08 0.07 0.26 0.20 0.86 0.80 1.20
1.12 1.09 1.01 0.91 0.83 0.78 0.77 0.75 0.78 0.94 1.22 1.69 2.07 2.25 1.33 0.39 0.94 2.82 5.67 4.06 0.99 0.20 0.42 0.61 0.95 0.86 0.89 0.53 0.75 0.72 0.68 0.55 0.44 0.52 0.85 1.51 1.66 0.19 0.08 0.12 0.12 0.19 0.31 0.88 1.73 2.86 2.16
1.26 1.15 1.03 0.91 0.87 0.83 0.82 0.86 0.93 0.97 1.38 1.76 2.24 2.88 1.09 0.66 2.42 4.80 5.09 1.99 0.47 0.11 0.20 0.91 1.32 1.32 0.83 0.77 0.98 1.16 1.23 0.63 0.38 0.53 0.62 0.86 1.74 0.58 0.16 0.34 0.32 0.36 0.71 1.13 1.83 1.98 2.61
1.49 1.30 1.19 1.01 0.94 0.94 0.92 0.98 1.13 1.35 1.84 2.57 3.03 2.83 1.07 1.47 3.58 4.12 2.44 0.88 0.42 0.23 0.25 0.69 0.98 1.09 1.10 0.98 1.25 1.82 1.33 0.89 0.45 0.54 0.85 0.86 1.55 0.90 0.31 0.20 0.26 0.46 0.82 1.17 2.27 2.29 2.35
1.81 1.57 1.33 1.17 1.04 1.04 0.97 1.09 1.30 1.72 2.41 3.01 3.90 2.44 1.95 2.37 2.98 1.86 0.92 0.51 0.50 0.48 0.42 0.92 1.02 1.16 1.20 1.22 1.57 1.16 1.12 0.66 0.47 0.67 0.92 0.91 1.66 1.54 0.93 0.83 1.09 0.96 0.95 1.41 2.18 2.92 3.07
1.89 1.76 1.50 1.38 1.32 1.28 1.16 1.18 1.42 1.80 2.55 3.75 4.75 3.48 3.69 4.31 1.88 0.73 0.79 0.85 0.80 0.52 0.50 0.65 1.08 1.17 1.21 1.01 0.82 1.05 0.78 0.31 0.24 0.31 0.49 1.02 1.65 1.29 1.17 1.04 1.40 1.43 1.22 1.18 2.13 3.25 2.37
2.18 1.90 1.65 1.51 1.51 1.47 1.41 1.32 1.49 2.08 2.95 5.01 6.36 3.08 1.51 2.34 1.82 0.95 0.86 1.17 0.80 0.68 0.61 0.48 0.90 0.81 0.95 1.23 0.75 0.59 0.54 0.36 0.23 0.16 0.29 0.84 1.83 1.04 0.88 0.92 0.71 0.91 1.30 1.37 1.37 1.45 1.80
2.22 2.03 1.83 1.65 1.56 1.68 1.57 1.56 1.55 2.12 3.99 7.05 6.30 1.86 1.04 0.67 0.45 0.99 1.76 1.72 0.89 0.64 0.98 0.78 0.69 0.40 0.61 0.93 0.89 0.70 0.68 0.80 0.73 0.42 0.51 0.62 1.33 1.15 0.95 0.71 0.55 0.83 1.05 0.73 0.73 1.10 1.09
2.47 2.27 2.21 1.97 1.82 1.83 2.02 1.90 1.81 2.12 4.64 8.44 5.01 1.49 1.82 1.28 0.66 1.13 1.11 0.90 0.76 0.81 0.84 0.68 0.82 1.09 0.92 0.66 0.66 0.69 0.64 0.75 0.79 0.85 0.89 0.85 1.06 1.12 0.92 0.35 0.48 1.24 0.96 0.52 0.32 0.30 0.33
2.48 2.38 2.20 2.47 2.13 2.02 2.07 2.26 2.35 2.46 3.59 4.70 3.26 1.49 2.45 2.19 1.19 0.75 0.51 0.58 0.65 0.80 1.04 0.59 0.63 0.79 0.59 0.48 0.56 0.64 0.58 0.43 0.46 0.44 0.82 1.21 0.93 1.22 0.95 0.73 1.56 0.86 0.30 0.17 0.08 0.12 0.13
2.21 2.32 2.07 2.27 2.51 2.24 2.05 2.14 2.64 2.68 2.71 3.00 2.42 2.09 2.44 1.90 0.73 0.68 0.70 0.62 0.52 0.63 0.81 0.61 0.56 0.61 0.68 0.80 1.26 1.08 0.82 0.69 0.31 0.30 0.32 0.53 1.06 1.55 1.25 0.78 0.67 0.29 0.09 0.06 0.15 0.15 0.09
2.22 2.20 1.92 2.08 2.28 2.55 2.31 2.11 2.40 2.77 2.84 3.12 2.29 2.41 3.13 2.69 1.08 0.44 0.84 0.95 0.86 0.80 0.89 0.63 0.47 0.35 0.65 1.07 1.49 1.24 0.76 0.61 0.44 0.39 0.34 0.62 1.02 2.08 1.84 1.27 0.66 0.26 0.09 0.06 0.17 0.36 0.15
2.66 2.24 1.96 1.93 1.84 2.34 2.62 2.33 1.98 2.49 3.17 3.55 2.87 2.15 4.14 3.86 0.93 0.52 0.65 0.72 0.78 0.82 1.03 0.75 0.73 0.73 0.87 1.42 1.47 0.94 0.67 0.46 0.66 0.58 0.62 0.88 1.50 2.27 2.18 2.27 1.04 0.29 0.14 0.15 0.62 0.80 0.32
2.60 2.47 1.74 1.65 1.56 1.69 2.01 2.49 2.37 2.32 3.21 4.35 3.31 1.93 2.89 3.46 1.21 0.61 0.50 0.55 0.48 0.67 1.08 1.20 1.39 1.46 1.64 1.72 1.42 1.08 0.89 0.73 0.63 0.59 0.64 0.90 1.21 1.42 1.67 2.14 1.58 0.53 0.54 0.76 0.79 0.37 0.21
2.18 2.51 1.72 1.50 1.56 1.58 1.50 1.79 2.50 2.66 3.16 4.38 4.18 2.36 2.51 3.23 2.01 0.87 0.43 0.37 0.37 0.46 0.78 0.91 1.12 0.97 1.28 1.49 1.27 0.95 0.81 0.71 0.58 0.91 0.52 0.99 0.68 0.86 0.97 1.37 1.25 1.07 0.97 0.62 0.38 0.46 0.39